CW7283 Weather Reports


time (UTC)temp
F
wind
direction
speed
knots
gust
knots
rain 1hr
in
rain 24hr
in
rain mn
in
humidity
%
barometer
mb
20260904021839 70 292 0.0 0.0 0.00 0.00 0.00 34 1009.5
20260904020344 71 338 0.0 0.0 0.00 0.00 0.00 34 1009.5
20260904014837 73 338 0.0 0.0 0.00 0.00 0.00 33 1009.3
20260904013330 75 338 0.0 0.0 0.00 0.00 0.00 31 1009.2
20260904011832 77 9 0.0 0.0 0.00 0.00 0.00 29 1009.0
20260904010337 78 360 0.0 0.0 0.00 0.00 0.00 27 1008.9
20260904004848 79 19 0.0 1.7 0.00 0.00 0.00 26 1008.9
20260904003329 81 24 0.0 1.7 0.00 0.00 0.00 25 1008.8
20260904001839 83 78 0.0 0.0 0.00 0.00 0.00 25 1008.8
20260904000342 83 91 0.0 0.0 0.00 0.00 0.00 25 1008.8
20260903234829 83 347 0.0 1.7 0.00 0.00 0.00 24 1008.8
20260903233355 84 327 0.0 1.7 0.00 0.00 0.00 25 1008.8
20260903231830 85 329 0.0 1.7 0.00 0.00 0.00 24 1008.8
20260903230332 86 80 0.0 1.7 0.00 0.00 0.00 24 1008.8
20260903224823 87 255 0.0 0.0 0.00 0.00 0.00 24 1008.8
20260903223339 86 194 0.0 1.7 0.00 0.00 0.00 24 1008.7
20260903221833 84 313 0.0 0.9 0.00 0.00 0.00 24 1008.7
20260903220352 85 261 0.0 1.7 0.00 0.00 0.00 25 1008.8
20260903214827 84 309 0.0 2.6 0.00 0.00 0.00 22 1008.8
20260903213337 87 330 0.0 1.7 0.00 0.00 0.00 24 1008.8
20260903211835 87 234 0.0 1.7 0.00 0.00 0.00 24 1008.8
20260903210338 86 63 0.0 1.7 0.00 0.00 0.00 23 1008.9
20260903204854 86 317 0.0 1.7 0.00 0.00 0.00 24 1008.9
20260903203340 84 221 0.0 1.7 0.00 0.00 0.00 24 1008.9
20260903201837 84 169 2.6 9.6 0.00 0.00 0.00 24 1009.2
20260903200330 84 71 0.0 3.5 0.00 0.00 0.00 26 1009.3
20260903194845 83 190 0.0 2.6 0.00 0.00 0.00 25 1009.4
20260903193357 82 313 0.0 2.6 0.00 0.00 0.00 27 1009.4
20260903191850 82 44 0.0 1.7 0.00 0.00 0.00 26 1009.5
20260903190338 83 51 0.0 0.9 0.00 0.00 0.00 27 1009.4
20260903184835 83 130 0.0 1.7 0.00 0.00 0.00 28 1009.5
20260903183347 82 17 0.0 1.7 0.00 0.00 0.00 26 1009.6
20260903181832 82 88 0.0 0.9 0.00 0.00 0.00 29 1009.7
20260903180345 82 79 0.0 1.7 0.00 0.00 0.00 29 1009.9
20260903174906 80 112 0.0 2.6 0.00 0.00 0.00 30 1010.1
20260903173341 80 55 0.0 1.7 0.00 0.00 0.00 32 1010.2
20260903171843 79 184 0.0 1.7 0.00 0.00 0.00 32 1010.3
20260903170338 78 191 0.0 3.5 0.00 0.00 0.00 33 1010.4
20260903164854 76 221 0.0 1.7 0.00 0.00 0.00 33 1010.4
20260903163337 74 15 0.0 1.7 0.00 0.00 0.00 40 1010.4
20260903161837 73 336 0.0 1.7 0.00 0.00 0.00 39 1010.5
20260903160333 72 294 0.0 1.7 0.00 0.00 0.00 42 1010.4
20260903154914 70 159 0.0 1.7 0.00 0.00 0.00 43 1010.6
20260903153353 67 142 0.0 1.7 0.00 0.00 0.00 45 1010.6
20260903151834 64 126 0.0 1.7 0.00 0.00 0.00 48 1010.6
20260903150334 61 131 0.0 1.7 0.00 0.00 0.00 52 1010.7
20260903144841 59 132 0.0 0.9 0.00 0.00 0.00 57 1010.7
20260903143351 58 136 0.0 1.7 0.00 0.00 0.00 59 1010.9
20260903141854 57 275 0.0 0.0 0.00 0.00 0.00 61 1011.0
20260903140331 56 275 0.0 0.0 0.00 0.00 0.00 63 1010.8
20260903134834 57 275 0.0 0.0 0.00 0.00 0.00 62 1010.8
20260903133328 57 147 0.0 0.0 0.00 0.00 0.00 60 1010.7
20260903131902 57 147 0.0 0.0 0.00 0.00 0.00 58 1010.5
20260903130353 57 255 0.0 0.0 0.00 0.00 0.00 56 1010.4
20260903124839 58 203 0.0 0.0 0.00 0.00 0.00 56 1010.6
20260903123331 58 203 0.0 0.0 0.00 0.00 0.00 56 1010.5
20260903121839 58 157 0.0 0.0 0.00 0.00 0.00 54 1010.3
20260903120409 58 259 0.0 1.7 0.00 0.00 0.00 54 1010.8
20260903114852 58 210 0.0 1.7 0.00 0.00 0.00 55 1011.0
20260903113339 59 194 0.0 0.9 0.00 0.00 0.00 55 1011.0
20260903111830 60 236 0.0 0.0 0.00 0.00 0.00 53 1010.6
20260903110343 60 236 0.0 0.0 0.00 0.00 0.00 51 1010.7
20260903104859 60 298 0.0 1.7 0.00 0.00 0.00 49 1010.7
20260903103352 60 304 0.0 0.0 0.00 0.00 0.00 48 1010.7
20260903101845 60 304 0.0 0.0 0.00 0.00 0.00 48 1010.4
20260903100337 61 336 0.0 0.0 0.00 0.00 0.00 47 1010.2
20260903094854 62 76 0.0 0.0 0.00 0.00 0.00 46 1010.0
20260903093329 63 347 0.0 0.0 0.00 0.00 0.00 45 1009.5
20260903091827 63 9 0.0 0.0 0.00 0.00 0.00 44 1009.5
20260903090343 63 295 0.0 1.7 0.00 0.00 0.00 43 1009.5
20260903084900 64 303 0.0 0.9 0.00 0.00 0.00 40 1009.7
20260903083343 64 315 0.0 0.0 0.00 0.00 0.00 40 1009.2
20260903081830 64 321 0.0 0.0 0.00 0.00 0.00 39 1008.9
20260903080345 65 277 0.0 0.0 0.00 0.00 0.00 40 1008.8
20260903074849 65 309 0.0 0.0 0.00 0.00 0.00 39 1008.8
20260903073401 65 38 0.0 1.7 0.00 0.00 0.00 39 1008.5
20260903071836 65 325 0.0 1.7 0.00 0.00 0.00 41 1008.7
20260903070347 65 349 0.0 0.0 0.00 0.00 0.00 42 1008.6
20260903064836 65 194 0.0 4.3 0.00 0.00 0.00 41 1008.2
20260903063351 64 92 0.0 0.0 0.00 0.00 0.00 44 1008.0
20260903061831 65 40 0.0 0.0 0.00 0.00 0.00 42 1007.9
20260903060330 65 215 0.0 0.0 0.00 0.00 0.00 43 1007.7
20260903054841 66 126 0.0 1.7 0.00 0.00 0.00 41 1007.7
20260903053350 68 119 0.0 0.0 0.00 0.00 0.00 39 1007.6
20260903051832 69 223 0.0 1.7 0.00 0.00 0.00 37 1007.6
20260903050410 69 199 0.0 0.9 0.00 0.00 0.00 37 1007.6
20260903044852 70 211 0.0 1.7 0.00 0.00 0.00 35 1007.7
20260903043334 70 206 0.0 1.7 0.00 0.00 0.00 35 1007.7
20260903041909 70 205 0.0 0.0 0.00 0.00 0.00 37 1007.8
20260903040338 70 192 0.0 0.0 0.00 0.00 0.00 36 1007.7
20260903034837 71 197 0.0 0.9 0.00 0.00 0.00 35 1007.9
20260903033327 70 248 0.0 1.7 0.00 0.00 0.00 35 1007.7
20260903031823 70 202 0.0 0.0 0.00 0.00 0.00 36 1007.7
20260903030337 71 195 0.0 0.0 0.00 0.00 0.00 35 1007.4
20260903024827 73 207 0.0 0.0 0.00 0.00 0.00 34 1007.2
20260903023330 75 209 0.0 1.7 0.00 0.00 0.00 31 1007.1